| time (UTC) | temp F | wind direction | speed knots | gust knots | rain 1hr in | rain 24hr in | rain mn in | humidity % | barometer mb |
| 20260504214403 | 0 | 125 | 1.7 | 2.6 | 0.00 | 0.00 | 0.00 | 38 | 1011.6 |
| 20260504213346 | 85 | 215 | 1.7 | 4.3 | 0.00 | 0.00 | 0.00 | 38 | 1011.6 |
| 20260504212330 | 85 | 305 | 1.7 | 5.2 | 0.00 | 0.00 | 0.00 | 36 | 1011.7 |
| 20260504211335 | 84 | 307 | 2.6 | 5.2 | 0.00 | 0.00 | 0.00 | 36 | 1011.9 |
| 20260504210344 | 85 | 323 | 0.9 | 2.6 | 0.00 | 0.00 | 0.00 | 38 | 1011.9 |
| 20260504205347 | 85 | 237 | 0.9 | 5.2 | 0.00 | 0.00 | 0.00 | 36 | 1011.9 |
| 20260504204331 | 85 | 204 | 1.7 | 5.2 | 0.00 | 0.00 | 0.00 | 36 | 1011.9 |
| 20260504203355 | 85 | 301 | 1.7 | 4.3 | 0.00 | 0.00 | 0.00 | 36 | 1011.9 |
| 20260504202343 | 85 | 160 | 1.7 | 4.3 | 0.00 | 0.00 | 0.00 | 38 | 1011.9 |
| 20260504201329 | 85 | 155 | 1.7 | 6.1 | 0.00 | 0.00 | 0.00 | 37 | 1012.3 |
| 20260504200335 | 86 | 190 | 2.6 | 5.2 | 0.00 | 0.00 | 0.00 | 37 | 1012.3 |
| 20260504195338 | 85 | 203 | 2.6 | 7.0 | 0.00 | 0.00 | 0.00 | 37 | 1012.4 |
| 20260504194338 | 85 | 170 | 1.7 | 6.1 | 0.00 | 0.00 | 0.00 | 37 | 1012.6 |
| 20260504193336 | 84 | 120 | 0.9 | 4.3 | 0.00 | 0.00 | 0.00 | 37 | 1012.6 |
| 20260504192338 | 85 | 131 | 1.7 | 4.3 | 0.00 | 0.00 | 0.00 | 37 | 1012.8 |
| 20260504191339 | 85 | 243 | 0.0 | 4.3 | 0.00 | 0.00 | 0.00 | 34 | 1012.9 |
| 20260504190330 | 85 | 57 | 0.9 | 4.3 | 0.00 | 0.00 | 0.00 | 34 | 1012.9 |
| 20260504185336 | 0 | 311 | 1.7 | 4.3 | 0.00 | 0.00 | 0.00 | 39 | 1013.2 |
| 20260504184342 | 84 | 224 | 1.7 | 4.3 | 0.00 | 0.00 | 0.00 | 39 | 1013.5 |
| 20260504183343 | 83 | 180 | 2.6 | 7.0 | 0.00 | 0.00 | 0.00 | 40 | 1013.5 |
| 20260504182344 | 0 | 130 | 2.6 | 4.3 | 0.00 | 0.00 | 0.00 | 37 | 1013.8 |
| 20260504181345 | 84 | 121 | 2.6 | 7.0 | 0.00 | 0.00 | 0.00 | 37 | 1014.1 |
| 20260504180351 | 84 | 234 | 1.7 | 4.3 | 0.00 | 0.00 | 0.00 | 40 | 1014.1 |
| 20260504175332 | 84 | 198 | 1.7 | 4.3 | 0.00 | 0.00 | 0.00 | 41 | 1014.2 |
| 20260504174333 | 0 | 203 | 1.7 | 6.1 | 0.00 | 0.00 | 0.00 | 43 | 1014.4 |
| 20260504173334 | 83 | 182 | 1.7 | 6.1 | 0.00 | 0.00 | 0.00 | 39 | 1014.4 |
| 20260504172400 | 84 | 176 | 2.6 | 8.7 | 0.00 | 0.00 | 0.00 | 39 | 1014.4 |
| 20260504171343 | 0 | 101 | 2.6 | 6.1 | 0.00 | 0.00 | 0.00 | 40 | 1014.5 |
| 20260504170344 | 84 | 169 | 2.6 | 5.2 | 0.00 | 0.00 | 0.00 | 40 | 1014.5 |
| 20260504160338 | 0 | 179 | 1.7 | 5.2 | 0.00 | 0.00 | 0.00 | 46 | 1015.1 |
| 20260504150340 | 79 | 84 | 2.6 | 6.1 | 0.00 | 0.00 | 0.00 | 51 | 1015.5 |
| 20260504140331 | 76 | 231 | 3.5 | 7.8 | 0.00 | 0.00 | 0.00 | 58 | 1015.1 |
| 20260504130344 | 72 | 145 | 2.6 | 5.2 | 0.00 | 0.00 | 0.00 | 65 | 1014.9 |
| 20260504110336 | 64 | 203 | 0.9 | 1.7 | 0.00 | 0.00 | 0.00 | 79 | 1014.0 |
| 20260504100333 | 64 | 132 | 1.7 | 2.6 | 0.00 | 0.00 | 0.00 | 79 | 1014.1 |
| 20260504081343 | 67 | 110 | 0.9 | 2.6 | 0.00 | 0.00 | 0.00 | 75 | 1014.0 |
| 20260504080405 | 67 | 232 | 0.9 | 3.5 | 0.00 | 0.00 | 0.00 | 75 | 1014.0 |
| 20260504070406 | 0 | 199 | 0.9 | 2.6 | 0.00 | 0.00 | 0.00 | 76 | 1014.5 |
| 20260504050355 | 70 | 174 | 0.9 | 2.6 | 0.00 | 0.00 | 0.00 | 71 | 1015.0 |
| 20260504045339 | 71 | 175 | 0.0 | 2.6 | 0.00 | 0.00 | 0.00 | 70 | 1015.0 |
| 20260504044340 | 0 | 174 | 0.0 | 2.6 | 0.00 | 0.00 | 0.00 | 70 | 1015.0 |
| 20260504043345 | 71 | 205 | 0.9 | 2.6 | 0.00 | 0.00 | 0.00 | 69 | 1015.0 |
| 20260504042406 | 72 | 215 | 0.0 | 2.6 | 0.00 | 0.00 | 0.00 | 69 | 1015.5 |
| 20260504041328 | 72 | 224 | 1.7 | 3.5 | 0.00 | 0.00 | 0.00 | 68 | 1015.6 |
| 20260504040333 | 0 | 205 | 0.9 | 2.6 | 0.00 | 0.00 | 0.00 | 68 | 1015.6 |
| 20260504035333 | 72 | 201 | 0.9 | 4.3 | 0.00 | 0.00 | 0.00 | 68 | 1015.6 |
| 20260504034335 | 72 | 200 | 0.9 | 2.6 | 0.00 | 0.00 | 0.00 | 68 | 1015.5 |
| 20260504033333 | 72 | 198 | 0.0 | 2.6 | 0.00 | 0.00 | 0.00 | 67 | 1015.5 |
| 20260504032356 | 72 | 198 | 0.9 | 1.7 | 0.00 | 0.00 | 0.00 | 66 | 1015.5 |
| 20260504031346 | 72 | 199 | 0.0 | 1.7 | 0.00 | 0.00 | 0.00 | 66 | 1015.4 |
| 20260504030347 | 72 | 199 | 0.9 | 2.6 | 0.00 | 0.00 | 0.00 | 64 | 1015.4 |
| 20260504025329 | 0 | 199 | 0.9 | 2.6 | 0.00 | 0.00 | 0.00 | 64 | 1015.4 |
| 20260504024330 | 72 | 189 | 0.9 | 2.6 | 0.00 | 0.00 | 0.00 | 65 | 1015.1 |
| 20260504023356 | 72 | 189 | 0.9 | 2.6 | 0.00 | 0.00 | 0.00 | 65 | 1015.1 |
| 20260504022337 | 0 | 199 | 0.9 | 2.6 | 0.00 | 0.00 | 0.00 | 65 | 1015.0 |
| 20260504021340 | 72 | 175 | 0.0 | 1.7 | 0.00 | 0.00 | 0.00 | 66 | 1014.8 |
| 20260504020402 | 72 | 177 | 0.9 | 3.5 | 0.00 | 0.00 | 0.00 | 66 | 1014.8 |
| 20260504015327 | 72 | 162 | 0.9 | 2.6 | 0.00 | 0.00 | 0.00 | 65 | 1014.5 |
| 20260504014330 | 0 | 182 | 0.9 | 1.7 | 0.00 | 0.00 | 0.00 | 65 | 1014.4 |
| 20260504013333 | 73 | 188 | 0.9 | 2.6 | 0.00 | 0.00 | 0.00 | 64 | 1014.4 |
| 20260504012334 | 73 | 116 | 0.9 | 1.7 | 0.00 | 0.00 | 0.00 | 63 | 1014.2 |
| 20260504011356 | 0 | 115 | 0.9 | 3.5 | 0.00 | 0.00 | 0.00 | 63 | 1014.0 |
| 20260504010343 | 74 | 201 | 1.7 | 3.5 | 0.00 | 0.00 | 0.00 | 62 | 1014.0 |
| 20260504005345 | 74 | 172 | 0.9 | 2.6 | 0.00 | 0.02 | 0.00 | 62 | 1013.9 |
| 20260504004346 | 0 | 171 | 0.9 | 2.6 | 0.00 | 0.02 | 0.00 | 61 | 1013.6 |
| 20260504003348 | 74 | 181 | 1.7 | 4.3 | 0.00 | 0.02 | 0.00 | 61 | 1013.6 |
| 20260504002334 | 75 | 92 | 0.9 | 3.5 | 0.00 | 0.02 | 0.00 | 61 | 1013.4 |
| 20260504001335 | 75 | 150 | 0.9 | 3.5 | 0.00 | 0.02 | 0.00 | 61 | 1013.3 |
| 20260504000401 | 75 | 169 | 0.9 | 3.5 | 0.00 | 0.02 | 0.00 | 60 | 1013.3 |
| 20260503235341 | 75 | 150 | 0.9 | 3.5 | 0.00 | 0.02 | 0.00 | 61 | 1013.4 |
| 20260503234343 | 76 | 87 | 0.9 | 4.3 | 0.00 | 0.02 | 0.00 | 59 | 1013.4 |
| 20260503233349 | 76 | 77 | 1.7 | 3.5 | 0.00 | 0.02 | 0.00 | 58 | 1013.4 |
| 20260503232350 | 76 | 145 | 1.7 | 5.2 | 0.00 | 0.02 | 0.00 | 58 | 1013.4 |
| 20260503231332 | 77 | 113 | 0.9 | 3.5 | 0.00 | 0.02 | 0.00 | 57 | 1013.2 |
| 20260503230337 | 77 | 109 | 1.7 | 4.3 | 0.00 | 0.02 | 0.00 | 57 | 1013.2 |
| 20260503225341 | 77 | 138 | 1.7 | 4.3 | 0.00 | 0.02 | 0.00 | 57 | 1013.2 |
| 20260503224342 | 78 | 66 | 2.6 | 4.3 | 0.00 | 0.02 | 0.00 | 56 | 1013.3 |
| 20260503223343 | 78 | 114 | 1.7 | 5.2 | 0.00 | 0.02 | 0.00 | 56 | 1013.3 |
| 20260503222344 | 78 | 46 | 2.6 | 6.1 | 0.00 | 0.02 | 0.00 | 54 | 1013.3 |
| 20260503221331 | 79 | 116 | 1.7 | 5.2 | 0.00 | 0.02 | 0.00 | 55 | 1013.3 |
| 20260503220332 | 79 | 39 | 1.7 | 5.2 | 0.00 | 0.02 | 0.00 | 54 | 1013.3 |
| 20260503215333 | 79 | 155 | 1.7 | 8.7 | 0.00 | 0.04 | 0.00 | 55 | 1013.3 |